Theta_e
308 309 308 307 302 302 301 300 301 301 301 301 301 301 302 302 300 302 302 302 301 302 301 302 302 302 304 305 305 305 301 302 302 301 302 300 300 300 301 301 301 301 301 302 303
310 310 311 312 307 304 303 301 301 301 301 300 301 301 302 303 301 301 301 301 301 301 302 302 302 302 302 302 302 299 298 300 299 299 299 300 300 301 301 301 301 302 301 302 302
312 313 313 312 312 310 306 304 301 301 301 300 300 301 301 303 302 301 301 301 302 302 302 302 302 303 302 302 301 299 299 299 300 301 301 301 300 301 301 300 301 302 301 302 302
314 314 314 313 314 313 310 306 302 302 302 300 300 300 302 303 303 301 302 302 302 303 302 303 303 302 301 301 302 300 302 301 300 302 302 301 302 301 301 302 302 303 303 303 303
315 315 315 315 314 314 314 310 302 306 305 301 300 301 302 300 300 301 302 302 302 303 303 303 303 302 301 302 302 301 301 301 302 302 302 302 302 301 301 303 303 303 303 303 303
315 316 316 315 315 315 315 314 308 305 306 301 300 300 300 299 299 301 301 302 302 303 303 303 303 303 302 302 301 301 301 301 302 303 302 302 301 301 302 303 303 302 302 303 302
315 315 315 315 316 315 315 314 313 304 309 301 300 300 300 299 299 301 301 302 301 302 304 303 303 304 303 302 302 302 302 300 301 302 301 301 298 298 301 302 302 301 301 301 302
315 315 315 315 315 315 314 314 313 309 309 302 300 300 300 299 299 301 301 302 301 301 302 303 304 304 304 303 300 297 297 297 299 301 301 301 298 299 301 301 301 301 300 300 301
315 315 315 315 315 315 315 314 312 310 309 304 299 301 299 299 299 301 302 302 302 302 302 304 304 301 302 300 298 295 295 299 298 300 300 301 299 298 300 300 300 299 299 300 300
315 315 315 316 315 314 314 313 312 309 309 306 302 302 299 298 299 300 301 302 303 303 303 304 303 296 294 295 296 295 296 299 298 299 299 299 299 299 299 298 298 298 299 299 300
316 315 315 316 315 314 310 310 311 310 309 304 300 297 298 298 300 300 301 302 302 301 299 301 298 296 299 298 297 297 299 299 298 298 298 298 297 298 298 297 296 298 299 300 299
317 316 315 315 314 312 308 310 308 306 304 303 298 296 297 297 300 300 300 301 299 296 297 295 296 299 298 299 300 298 294 294 297 297 298 296 297 297 295 295 298 299 300 300 298
316 314 314 315 314 310 307 308 309 307 301 302 296 296 296 298 300 300 300 301 296 294 293 296 301 299 300 300 299 298 295 294 298 297 295 294 294 295 296 297 298 298 298 298 298
315 312 315 313 308 306 308 309 309 306 297 303 296 296 297 299 300 300 300 299 299 295 297 296 300 300 300 300 298 295 297 299 298 291 291 294 293 296 296 295 297 298 298 298 298
308 308 308 306 306 307 307 309 308 305 305 298 296 296 298 300 300 300 300 300 301 297 293 297 300 300 298 300 297 297 297 298 294 286 291 290 290 295 295 297 296 296 298 299 298
309 307 305 306 306 307 307 307 307 303 302 298 296 296 298 299 299 299 300 301 299 299 298 294 298 298 299 297 297 294 292 290 287 282 288 286 288 294 295 295 297 296 298 299 299
304 305 306 306 306 306 307 308 302 302 298 299 296 296 296 297 298 297 298 298 298 296 293 294 297 296 297 298 296 293 286 288 290 287 292 279 290 295 294 293 294 293 297 298 298
304 307 308 307 307 306 308 299 298 293 293 301 296 299 299 296 297 295 297 297 296 294 287 290 295 292 296 296 292 294 287 289 287 289 288 281 290 294 292 293 294 294 295 296 298
307 307 307 307 307 306 307 298 299 296 303 301 302 298 295 297 294 293 296 295 298 292 294 290 292 294 296 296 293 291 291 288 282 277 283 285 287 291 292 287 292 294 295 297 297
306 307 307 307 307 306 302 304 299 301 297 299 303 300 296 293 299 291 296 296 299 295 291 291 292 289 293 295 292 290 290 290 285 287 286 286 280 293 289 285 287 288 293 296 295
306 306 306 306 307 306 302 296 299 304 298 299 301 297 299 295 294 293 296 297 297 295 293 287 287 290 294 292 292 293 289 286 286 288 288 286 291 287 287 284 284 285 294 295 294
306 304 305 306 305 302 305 302 301 300 298 298 297 299 298 297 295 291 296 296 297 295 295 293 291 289 292 293 292 290 288 291 291 287 284 289 294 290 284 277 283 290 294 294 294
305 305 304 305 302 302 301 302 300 298 296 296 296 298 295 291 296 296 297 297 297 295 295 295 288 288 296 293 292 292 292 291 289 291 288 290 296 284 276 279 291 290 294 294 294
303 302 302 302 301 301 302 302 302 299 298 297 297 296 296 294 294 296 298 296 296 296 297 297 294 292 299 295 286 292 293 294 293 290 295 295 297 298 298 296 294 293 293 294 293
301 302 302 300 301 300 302 302 299 302 297 296 293 295 295 297 294 291 295 296 295 297 297 295 292 292 292 291 286 291 291 293 293 293 294 298 294 297 297 296 295 295 295 293 293
302 300 300 299 299 299 301 302 302 302 300 299 294 297 295 294 299 299 296 296 296 295 295 293 288 285 285 292 292 290 292 294 293 293 294 295 294 295 295 294 292 293 293 292 292
296 299 301 301 298 298 300 301 301 300 301 302 297 297 296 296 297 299 299 297 296 295 296 293 288 286 289 286 285 291 291 293 288 286 289 289 294 293 291 287 290 293 292 292 293
Wind_Speed
20 22 22 20 16 15 15 12 12 10 8 7 6 5 2 3 12 7 6 8 9 8 5 3 3 5 6 5 4 3 4 2 5 5 2 1 2 1 3 6 4 3 5 6 7
19 20 21 22 20 15 15 12 12 10 8 7 6 6 5 2 3 13 11 8 7 6 3 2 3 5 4 4 4 5 4 5 2 4 2 0 0 3 2 3 4 6 8 5 6
18 19 19 20 20 19 15 13 10 10 8 6 6 5 7 2 1 11 10 7 7 5 2 3 4 4 5 5 6 2 3 4 3 3 2 2 2 4 3 4 9 5 8 8 10
16 17 19 19 20 21 19 15 9 10 10 7 7 6 4 3 1 9 8 8 7 5 2 2 2 3 4 3 2 4 3 2 4 3 2 2 2 4 10 6 5 7 9 8 9
14 16 17 19 19 20 21 18 10 13 12 7 6 6 2 3 5 9 8 8 8 6 3 5 4 4 5 4 3 3 1 1 3 5 5 4 7 6 15 16 9 6 8 9 10
14 15 17 18 19 18 20 19 13 11 15 8 6 5 2 3 5 9 7 7 7 10 8 5 6 9 8 4 3 1 1 2 0 1 1 2 4 3 3 6 5 3 8 14 14
13 14 15 17 19 17 19 22 15 10 15 9 4 1 6 4 5 9 7 7 7 8 10 10 7 2 6 4 3 1 2 1 4 4 4 7 5 7 12 7 7 10 21 15 13
15 15 16 17 16 17 19 22 15 12 11 8 4 2 2 4 4 8 7 6 5 4 6 6 7 7 4 7 5 4 4 3 2 5 3 5 9 4 6 9 16 25 23 16 16
15 17 18 18 18 18 19 21 15 10 8 7 4 1 1 4 5 9 8 4 3 3 5 4 2 4 3 4 4 7 1 2 7 5 2 1 9 8 9 20 27 26 26 16 13
15 17 17 20 21 20 21 20 12 6 8 4 3 2 3 5 5 6 10 4 2 1 1 2 4 4 4 5 2 2 2 2 5 2 2 6 19 20 25 16 24 29 23 15 14
15 15 15 18 22 24 20 14 8 3 16 3 6 3 4 8 3 5 11 3 2 3 4 5 5 1 2 3 4 5 1 3 4 3 5 6 14 23 26 22 21 23 14 11 14
13 16 16 19 22 21 18 9 8 7 7 4 3 2 3 7 3 8 9 3 4 2 4 6 1 2 5 4 4 4 3 5 5 2 3 7 21 21 11 7 7 6 8 11 14
11 15 18 15 22 14 17 13 12 12 2 3 3 2 2 5 3 8 9 4 6 4 3 4 1 3 2 2 3 1 4 2 4 8 2 7 9 5 3 4 5 6 7 10 14
10 12 11 18 12 15 10 13 13 12 4 3 2 2 2 3 3 5 6 4 4 2 2 1 3 2 3 0 4 1 3 0 2 4 3 6 5 6 4 8 5 8 12 15 16
12 14 17 16 13 10 9 11 13 5 4 2 2 2 4 3 3 2 5 2 2 1 4 4 2 1 1 1 3 1 3 2 3 4 4 4 2 8 4 6 7 8 15 19 19
14 14 14 13 10 9 10 11 7 5 5 3 3 3 4 4 3 4 1 2 2 3 2 3 2 0 1 3 2 4 4 5 4 3 3 3 3 6 4 4 3 3 8 15 22
14 12 10 9 8 8 8 7 5 4 3 5 3 4 1 4 3 5 3 2 1 4 4 4 1 2 0 2 3 5 6 4 5 4 5 2 1 12 7 4 5 9 24 21 19
10 6 6 5 6 6 5 5 3 2 5 2 2 2 2 5 2 5 3 3 2 4 3 3 6 1 4 2 4 3 5 5 5 2 5 3 6 6 6 8 14 22 23 23 23
5 4 7 4 3 5 2 3 7 6 1 1 2 5 4 1 1 4 1 3 2 4 5 3 4 1 4 2 3 2 1 3 6 2 3 2 8 11 4 6 5 9 12 21 26
3 6 9 8 3 1 3 5 3 3 0 0 3 3 3 3 2 4 1 2 3 2 2 3 3 1 2 3 6 4 3 4 3 2 5 5 6 8 7 6 6 6 10 19 28
3 4 5 4 5 3 2 6 4 5 3 3 3 2 5 3 3 1 3 2 2 3 5 4 3 5 2 4 7 2 1 4 4 3 4 3 6 8 11 8 7 9 16 25 31
4 1 3 5 2 1 1 2 3 4 4 4 2 5 7 5 3 2 5 5 6 7 4 3 3 3 8 1 3 4 6 4 4 5 2 2 10 3 8 5 9 18 29 37 34
3 6 7 9 3 2 2 3 4 2 3 3 3 5 2 4 1 5 3 1 8 6 5 5 1 3 6 3 3 3 4 3 3 2 7 4 10 3 4 5 15 21 37 39 39
3 2 3 9 4 4 3 5 6 4 4 4 2 3 2 2 2 2 3 2 7 5 4 7 3 6 6 5 3 3 4 6 5 3 6 16 30 22 27 19 21 28 32 41 34
6 5 4 2 5 6 4 2 3 5 3 3 3 6 6 4 1 5 5 2 3 5 5 3 5 2 5 7 5 10 8 15 13 11 10 32 14 29 21 20 25 31 43 34 30
4 4 3 4 5 5 8 7 15 12 7 4 5 3 7 6 8 7 4 4 5 3 6 4 3 2 5 7 4 8 16 18 17 17 18 25 28 32 40 32 28 33 29 29 26
12 18 10 6 4 6 6 10 7 9 14 20 14 5 7 16 21 13 8 4 6 8 8 5 5 2 5 4 7 9 10 7 4 5 6 8 18 14 13 9 19 27 34 34 22
Wind_Direction
54 46 41 36 34 29 26 27 28 22 18 20 14 9 343 359 37 32 22 14 9 16 31 60 70 126 139 109 91 117 65 163 188 150 195 30 69 229 290 276 266 209 195 194 208
49 46 40 36 31 27 23 19 18 21 27 32 30 24 7 333 354 28 22 18 3 14 34 95 114 137 85 69 42 76 110 191 162 160 174 309 242 310 330 298 264 241 210 230 255
44 38 35 32 27 23 18 13 11 16 19 12 3 2 3 320 8 11 11 10 8 8 59 88 90 89 74 50 26 51 140 154 185 157 148 230 259 197 201 260 230 236 210 268 253
40 32 27 28 25 20 14 10 13 10 359 353 351 349 11 58 114 360 11 16 15 17 110 102 117 71 71 85 60 96 73 101 173 179 174 224 253 251 217 234 282 267 263 269 267
30 27 23 19 19 17 13 9 4 3 354 343 350 359 10 63 41 7 20 27 38 33 98 102 109 114 109 105 91 85 158 264 208 241 245 241 255 249 258 266 258 268 271 272 266
21 18 16 14 10 9 7 2 353 346 358 346 324 353 19 73 10 7 22 37 65 65 76 102 100 107 101 75 73 102 187 281 171 20 356 275 269 339 253 183 207 277 298 273 268
5 2 2 2 4 359 1 358 348 339 355 356 1 34 46 65 22 11 30 47 68 70 69 81 99 97 114 106 97 57 127 23 33 9 17 339 288 230 241 204 253 282 316 283 256
355 350 350 350 352 355 351 351 342 336 349 350 359 1 94 39 33 22 27 42 64 76 75 86 88 81 64 120 40 45 51 28 352 0 20 53 274 241 210 243 280 297 305 282 272
341 342 344 345 344 342 346 349 339 333 349 341 339 1 79 7 12 19 16 26 52 75 71 79 77 82 86 73 24 13 188 330 323 37 327 116 276 238 257 290 292 294 298 281 254
322 323 328 334 340 339 335 340 331 320 343 344 2 343 36 347 358 8 3 358 18 121 5 57 47 69 36 63 230 254 22 281 258 328 350 268 265 276 282 283 278 287 284 260 236
311 313 324 329 335 340 342 355 353 327 340 5 332 305 319 346 337 352 359 1 16 52 41 17 64 97 130 85 105 107 113 268 261 317 320 263 276 279 291 284 271 271 265 242 218
302 313 324 326 335 336 345 26 14 323 313 336 326 315 326 350 347 4 0 22 38 63 343 18 121 173 120 93 90 78 82 285 294 288 323 306 288 287 283 250 241 273 248 220 217
301 309 318 319 331 334 353 8 356 345 307 324 347 354 358 1 28 358 13 26 69 52 19 143 119 132 102 85 78 185 168 243 262 327 284 320 292 318 278 279 276 261 242 224 232
299 314 321 318 332 336 348 351 350 343 60 298 343 12 352 357 34 15 19 31 43 175 181 173 329 111 58 242 122 294 179 297 348 43 277 38 282 302 313 304 278 265 239 238 245
305 312 321 331 328 337 339 341 340 352 357 298 346 334 353 57 332 14 13 18 116 149 87 262 145 137 107 244 139 175 36 46 89 100 24 342 56 271 325 298 281 274 254 253 257
299 308 315 321 341 339 331 333 334 39 261 335 318 348 20 21 11 333 9 45 97 113 73 216 317 288 221 62 56 107 69 47 65 95 12 247 127 276 256 218 291 275 303 284 263
296 299 308 326 343 343 340 336 29 135 351 303 341 30 92 331 359 24 7 349 188 37 351 337 339 338 3 87 35 67 51 332 348 5 231 315 320 246 266 249 237 283 296 298 283
300 295 311 332 345 350 349 50 104 239 234 326 348 2 43 5 28 333 340 323 81 84 96 121 325 58 348 99 171 62 136 152 248 278 276 356 239 253 233 284 277 280 285 290 288
294 301 322 294 330 352 352 84 208 205 219 232 3 59 318 358 163 17 250 221 212 166 165 122 288 350 29 68 82 237 69 161 99 92 24 256 288 290 274 294 271 285 294 299 311
295 287 285 271 246 238 79 250 234 226 229 156 179 143 212 269 356 57 325 210 168 144 137 195 351 265 248 89 36 137 145 48 8 336 303 286 278 238 291 280 301 305 300 327 326
248 279 273 239 195 194 204 233 289 260 227 188 236 213 216 219 173 239 252 266 132 121 93 126 100 287 59 197 178 123 3 43 120 141 194 304 258 217 232 220 263 286 301 317 321
255 282 272 179 156 234 240 229 274 264 223 246 252 216 198 174 169 226 238 223 175 154 152 186 141 240 224 107 133 165 183 161 133 254 212 193 269 228 237 238 257 284 305 318 322
247 259 259 187 226 218 211 274 274 271 240 189 225 222 93 196 309 200 219 233 180 158 165 180 302 350 335 24 2 218 200 173 115 89 195 181 271 286 273 274 281 285 307 316 324
272 307 264 208 212 168 218 250 238 229 262 234 280 119 135 264 249 238 246 204 187 201 185 164 182 191 218 212 142 207 203 208 167 159 259 233 269 270 283 295 297 302 307 314 319
227 242 221 222 235 210 187 281 238 247 210 245 316 213 175 225 255 229 225 212 187 208 166 165 223 247 256 247 205 239 228 238 215 218 221 272 254 276 284 289 295 299 303 311 314
260 251 234 272 209 193 208 215 243 250 170 218 215 226 199 206 204 205 166 196 206 154 159 185 253 120 283 274 287 271 245 242 236 245 253 261 276 267 276 287 285 292 302 305 310
244 262 285 245 216 215 216 223 242 217 234 227 211 168 205 234 245 249 216 224 198 170 184 167 153 111 265 339 327 296 246 189 185 215 178 208 242 280 277 271 280 302 304 305 306